{"data":{"norad_id":63946,"intl_designator":"2025-098W","name":"STARLINK-34039","alt_names":[],"object_type":"PAYLOAD","status":"ACTIVE","operator":null,"country":"US","launch_date":"2025-05-13","launch_site_code":"AFWTR","launch_vehicle":null,"mission":null,"orbit_class":"UNKNOWN","rcs_meters":null,"size_class":null,"mass_kg":null,"dimensions":null,"purposes":["comms"],"wikipedia_slug":null,"has_3d_model":false,"image_url":null,"decayed_at":null,"tle_current":{"epoch":"2026-09-20T22:26:43.622304Z","epoch_age_seconds":109524,"freshness":"FRESH","line1":"1 63946U 25098W   26263.93522711  .00013584  00000+0  47565-3 0  9991","line2":"2 63946  69.9979 139.5728 0003268 266.3550  93.7252 15.29612299 75860","mean_motion":15.29612299,"eccentricity":0.0003268,"inclination_deg":69.9979,"raan_deg":139.5728,"arg_perigee_deg":266.355,"mean_anomaly_deg":93.7252,"bstar":0.00047565,"rev_number":7586,"period_min":94.141502454015,"perigee_km":474.73015139057,"apogee_km":479.21064958753,"semimajor_km":6855.1074004891,"source":"CELESTRAK","updated_at":"2026-09-21T09:00:35.152979Z"}}}